Location: ?
(35.4064°N, 139.3593°E)
Time: 15:19:01
(UTC+00:00)

ACS3 Solar Sail - Pass Details

Date: 21 June 2024
Orbit: 993 x 1023 km, 97.4° (Epoch: 19 July)

Event Time Altitude Azimuth Distance (km) Brightness Sun altitude
Exits shadow 11:54:07 30° 136° (SE) 1,692 5.5 -18.7°
Maximum altitude 11:57:01 55° 74° (ENE) 1,188 5.1 -19.0°
Drops below altitude 10° 12:03:04 10° 358° (N) 2,766 7.9 -19.8°
Sets 12:05:35 0° 354° (N) 3,716 8.8 -20.2°
